• In Deutschland
  • Länderverzeichnis
  • Für 7 Tage
  • Wassertemperatur
  • Satellitenkarten
  • Wetterkarte
  • Widgets
  • user-avatar
    Anmelden

    Stündliche Wetter Araras

    Heute, 22 Oktober, Montag

    Zeit Temperatur Niederschläge Wind Luftdruck Luftfeuchtigkeit
    00:00 +19°C° 0 mm 3 m/S 707 mmHg 74%
    01:00 +19°C° 0 mm 3 m/S 707 mmHg 76%
    02:00 +18°C° 0 mm 2 m/S 707 mmHg 77%
    03:00 +19°C° 0 mm 1 m/S 706 mmHg 81%
    04:00 +19°C° 0 mm 1 m/S 706 mmHg 81%
    05:00 +19°C° 0 mm 1 m/S 707 mmHg 82%
    06:00 +19°C° 0 mm 1 m/S 707 mmHg 83%
    07:00 +20°C° 0 mm 2 m/S 707 mmHg 76%
    08:00 +23°C° 0 mm 2 m/S 708 mmHg 68%
    09:00 +26°C° 0 mm 3 m/S 708 mmHg 60%
    10:00 +27°C° 0 mm 3 m/S 708 mmHg 56%
    11:00 +29°C° 0 mm 2 m/S 708 mmHg 52%
    12:00 +30°C° 0 mm 2 m/S 707 mmHg 48%
    13:00 +31°C° 0 mm 2 m/S 707 mmHg 46%
    14:00 +31°C° 0 mm 2 m/S 706 mmHg 45%
    15:00 +32°C° 0 mm 1 m/S 706 mmHg 43%
    16:00 +30°C° 0 mm 1 m/S 706 mmHg 47%
    17:00 +29°C° 0 mm 1 m/S 705 mmHg 50%
    18:00 +26°C° 0 mm 0 m/S 705 mmHg 54%
    19:00 +27°C° 0 mm 1 m/S 705 mmHg 56%
    20:00 +26°C° 0 mm 1 m/S 706 mmHg 59%
    21:00 +25°C° 0 mm 1 m/S 706 mmHg 61%
    22:00 +24°C° 0 mm 1 m/S 706 mmHg 64%
    23:00 +24°C° 0 mm 2 m/S 706 mmHg 67%

    Morgen, 23 Oktober, Dienstag

    Zeit Temperatur Niederschläge Wind Luftdruck Luftfeuchtigkeit
    00:00 +23°C° 0 mm 2 m/S 706 mmHg 71%
    01:00 +23°C° 0 mm 2 m/S 706 mmHg 73%
    02:00 +21°C° 0 mm 2 m/S 706 mmHg 75%
    03:00 +21°C° 0 mm 2 m/S 706 mmHg 78%
    04:00 +21°C° 0 mm 2 m/S 706 mmHg 80%
    05:00 +20°C° 0 mm 2 m/S 706 mmHg 82%
    06:00 +20°C° 0 mm 2 m/S 706 mmHg 84%
    07:00 +22°C° 0 mm 3 m/S 706 mmHg 76%
    08:00 +25°C° 0 mm 3 m/S 707 mmHg 68%
    09:00 +27°C° 0 mm 4 m/S 707 mmHg 60%
    10:00 +29°C° 0 mm 4 m/S 707 mmHg 55%
    11:00 +30°C° 0 mm 3 m/S 707 mmHg 50%
    12:00 +33°C° 0 mm 3 m/S 707 mmHg 45%
    13:00 +33°C° 0 mm 3 m/S 706 mmHg 46%
    14:00 +32°C° 0 mm 2 m/S 706 mmHg 46%
    15:00 +31°C° 0 mm 2 m/S 705 mmHg 47%
    16:00 +31°C° 0 mm 1 m/S 705 mmHg 51%
    17:00 +30°C° 0 mm 1 m/S 705 mmHg 54%
    18:00 +29°C° 0 mm 1 m/S 705 mmHg 57%
    19:00 +28°C° 0 mm 1 m/S 705 mmHg 61%
    20:00 +27°C° 0 mm 1 m/S 706 mmHg 64%
    21:00 +26°C° 0 mm 2 m/S 707 mmHg 67%
    22:00 +25°C° 0 mm 2 m/S 707 mmHg 70%
    23:00 +24°C° 0 mm 2 m/S 707 mmHg 74%

    übermorgen, 24 Oktober, Mittwoch

    Zeit Temperatur Niederschläge Wind Luftdruck Luftfeuchtigkeit
    00:00 +24°C° 0 mm 2 m/S 707 mmHg 77%
    01:00 +23°C° 0 mm 2 m/S 706 mmHg 78%
    02:00 +23°C° 0 mm 2 m/S 705 mmHg 79%
    03:00 +23°C° 0 mm 2 m/S 705 mmHg 80%
    04:00 +23°C° 0 mm 2 m/S 705 mmHg 81%
    05:00 +23°C° 0 mm 2 m/S 705 mmHg 82%
    06:00 +21°C° 0 mm 2 m/S 706 mmHg 82%
    07:00 +24°C° 0 mm 2 m/S 706 mmHg 78%
    08:00 +25°C° 0 mm 2 m/S 706 mmHg 73%
    09:00 +26°C° 0 mm 2 m/S 707 mmHg 68%
    10:00 +28°C° 0.9 mm 2 m/S 707 mmHg 65%
    11:00 +29°C° 0.9 mm 2 m/S 707 mmHg 62%
    12:00 +30°C° 0.9 mm 1 m/S 707 mmHg 58%
    13:00 +29°C° 2.3 mm 1 m/S 706 mmHg 65%
    14:00 +27°C° 2.3 mm 1 m/S 705 mmHg 72%
    15:00 +26°C° 2.3 mm 1 m/S 704 mmHg 79%
    16:00 +25°C° 1.7 mm 1 m/S 704 mmHg 82%
    17:00 +25°C° 1.7 mm 2 m/S 704 mmHg 85%
    18:00 +24°C° 1.7 mm 2 m/S 704 mmHg 88%
    19:00 +24°C° 0.9 mm 2 m/S 705 mmHg 89%
    20:00 +23°C° 0.9 mm 2 m/S 705 mmHg 89%
    21:00 +23°C° 0.9 mm 2 m/S 705 mmHg 90%
    22:00 +23°C° 2.2 mm 2 m/S 705 mmHg 91%
    23:00 +23°C° 2.2 mm 2 m/S 705 mmHg 92%

    25 Oktober, Donnerstag

    Zeit Temperatur Niederschläge Wind Luftdruck Luftfeuchtigkeit
    00:00 +23°C° 2.2 mm 2 m/S 705 mmHg 93%
    01:00 +23°C° 1.5 mm 2 m/S 704 mmHg 93%
    02:00 +23°C° 1.5 mm 2 m/S 704 mmHg 93%
    03:00 +21°C° 1.5 mm 2 m/S 703 mmHg 93%
    04:00 +21°C° 1.8 mm 2 m/S 703 mmHg 93%
    05:00 +21°C° 1.8 mm 2 m/S 704 mmHg 93%
    06:00 +21°C° 1.8 mm 2 m/S 704 mmHg 94%
    07:00 +23°C° 3.2 mm 2 m/S 704 mmHg 93%
    08:00 +23°C° 3.2 mm 2 m/S 705 mmHg 93%
    09:00 +23°C° 3.2 mm 2 m/S 705 mmHg 93%
    10:00 +23°C° 1.4 mm 2 m/S 705 mmHg 91%
    11:00 +24°C° 1.4 mm 2 m/S 705 mmHg 89%
    12:00 +24°C° 1.4 mm 2 m/S 704 mmHg 87%
    13:00 +24°C° 1.6 mm 2 m/S 704 mmHg 87%
    14:00 +24°C° 1.6 mm 2 m/S 703 mmHg 87%
    15:00 +24°C° 1.6 mm 2 m/S 703 mmHg 87%
    16:00 +24°C° 0.7 mm 2 m/S 703 mmHg 88%
    17:00 +24°C° 0.7 mm 2 m/S 703 mmHg 89%
    18:00 +23°C° 0.7 mm 2 m/S 703 mmHg 89%
    19:00 +23°C° 0.1 mm 2 m/S 703 mmHg 91%
    20:00 +21°C° 0.1 mm 2 m/S 703 mmHg 92%
    21:00 +21°C° 0.1 mm 2 m/S 704 mmHg 93%
    22:00 +21°C° 0 mm 2 m/S 703 mmHg 93%
    23:00 +21°C° 0 mm 1 m/S 703 mmHg 94%

    26 Oktober, Freitag

    Zeit Temperatur Niederschläge Wind Luftdruck Luftfeuchtigkeit
    00:00 +21°C° 0 mm 1 m/S 703 mmHg 94%
    01:00 +21°C° 0.3 mm 1 m/S 703 mmHg 94%
    02:00 +21°C° 0.3 mm 1 m/S 702 mmHg 94%
    03:00 +21°C° 0.3 mm 1 m/S 702 mmHg 95%
    04:00 +21°C° 1.5 mm 1 m/S 702 mmHg 95%
    05:00 +21°C° 1.5 mm 1 m/S 702 mmHg 95%
    06:00 +21°C° 1.5 mm 1 m/S 702 mmHg 95%
    07:00 +22°C° 0.3 mm 1 m/S 703 mmHg 92%
    08:00 +23°C° 0.3 mm 1 m/S 703 mmHg 89%
    09:00 +24°C° 0.3 mm 1 m/S 704 mmHg 85%
    10:00 +25°C° 0.2 mm 1 m/S 704 mmHg 80%
    11:00 +26°C° 0.2 mm 1 m/S 703 mmHg 76%
    12:00 +27°C° 0.2 mm 1 m/S 703 mmHg 71%
    13:00 +27°C° 0.6 mm 1 m/S 703 mmHg 71%
    14:00 +27°C° 0.6 mm 1 m/S 702 mmHg 71%
    15:00 +27°C° 0.6 mm 1 m/S 702 mmHg 71%
    16:00 +27°C° 0.3 mm 1 m/S 702 mmHg 74%
    17:00 +26°C° 0.3 mm 1 m/S 702 mmHg 77%
    18:00 +25°C° 0.3 mm 1 m/S 702 mmHg 81%
    19:00 +25°C° 0 mm 1 m/S 702 mmHg 83%
    20:00 +24°C° 0 mm 1 m/S 703 mmHg 85%
    21:00 +23°C° 0 mm 1 m/S 703 mmHg 87%
    22:00 +23°C° 0 mm 1 m/S 703 mmHg 88%
    23:00 +23°C° 0 mm 1 m/S 703 mmHg 89%

    27 Oktober, Samstag

    Zeit Temperatur Niederschläge Wind Luftdruck Luftfeuchtigkeit
    00:00 +22°C° 0 mm 1 m/S 703 mmHg 90%
    01:00 +22°C° 0 mm 1 m/S 702 mmHg 90%
    02:00 +22°C° 0 mm 1 m/S 702 mmHg 91%
    03:00 +22°C° 0 mm 1 m/S 702 mmHg 91%
    04:00 +22°C° 0.1 mm 1 m/S 702 mmHg 91%
    05:00 +22°C° 0.1 mm 1 m/S 702 mmHg 92%
    06:00 +20°C° 0.1 mm 0 m/S 702 mmHg 92%
    07:00 +22°C° 0 mm 0 m/S 703 mmHg 85%
    08:00 +24°C° 0 mm 0 m/S 703 mmHg 78%
    09:00 +25°C° 0 mm 0 m/S 704 mmHg 72%
    10:00 +29°C° 0.3 mm 1 m/S 704 mmHg 66%
    11:00 +30°C° 0.3 mm 1 m/S 703 mmHg 61%
    12:00 +31°C° 0.3 mm 1 m/S 703 mmHg 56%
    13:00 +31°C° 0.6 mm 1 m/S 703 mmHg 56%
    14:00 +31°C° 0.6 mm 2 m/S 702 mmHg 56%
    15:00 +31°C° 0.6 mm 2 m/S 702 mmHg 56%
    16:00 +29°C° 0.9 mm 2 m/S 702 mmHg 63%
    17:00 +28°C° 0.9 mm 3 m/S 702 mmHg 71%
    18:00 +26°C° 0.9 mm 3 m/S 702 mmHg 78%
    19:00 +25°C° 0.1 mm 3 m/S 703 mmHg 80%
    20:00 +24°C° 0.1 mm 3 m/S 703 mmHg 81%
    21:00 +22°C° 0.1 mm 4 m/S 704 mmHg 83%
    22:00 +22°C° 0 mm 4 m/S 704 mmHg 82%
    23:00 +22°C° 0 mm 3 m/S 704 mmHg 82%

    28 Oktober, Sonntag

    Zeit Temperatur Niederschläge Wind Luftdruck Luftfeuchtigkeit
    00:00 +21°C° 0 mm 3 m/S 704 mmHg 82%
    01:00 +21°C° 0 mm 3 m/S 704 mmHg 83%
    02:00 +21°C° 0 mm 3 m/S 703 mmHg 83%
    03:00 +20°C° 0 mm 3 m/S 703 mmHg 84%
    04:00 +20°C° 0 mm 3 m/S 703 mmHg 84%
    05:00 +20°C° 0 mm 3 m/S 703 mmHg 85%
    06:00 +20°C° 0 mm 3 m/S 704 mmHg 85%
    07:00 +21°C° 0 mm 3 m/S 704 mmHg 80%
    08:00 +24°C° 0 mm 3 m/S 705 mmHg 75%
    09:00 +25°C° 0 mm 3 m/S 705 mmHg 70%
    10:00 +26°C° 0 mm 3 m/S 705 mmHg 68%
    11:00 +27°C° 0 mm 3 m/S 705 mmHg 65%
    12:00 +28°C° 0 mm 3 m/S 704 mmHg 62%
    13:00 +28°C° 0.1 mm 3 m/S 704 mmHg 63%
    14:00 +28°C° 0.1 mm 4 m/S 703 mmHg 63%
    15:00 +28°C° 0.1 mm 4 m/S 703 mmHg 63%
    16:00 +27°C° 0 mm 4 m/S 703 mmHg 67%
    17:00 +25°C° 0 mm 4 m/S 703 mmHg 70%
    18:00 +23°C° 0 mm 4 m/S 704 mmHg 74%
    19:00 +22°C° 0 mm 5 m/S 704 mmHg 73%
    20:00 +21°C° 0 mm 5 m/S 705 mmHg 73%
    21:00 +20°C° 0 mm 5 m/S 705 mmHg 73%
    22:00 +20°C° 0 mm 4 m/S 705 mmHg 73%
    23:00 +20°C° 0 mm 4 m/S 705 mmHg 74%
    Mehr zeigen